Weather History for Fort Smith, AR

Change the Weather History Date:

Wednesday, April 3, 2013

  Actual Average Record
Temperature  
Mean Temperature 46 °F 58 °F  
Max Temperature 51 °F 70 °F 89 °F (2011)
Min Temperature 41 °F 46 °F 22 °F (1975)
Degree Days  
Heating Degree Days 19 8  
Month to date heating degree days 40 24  
Since 1 July heating degree days 2832 3083  
Cooling Degree Days 0 1  
Month to date cooling degree days 0 3  
Year to date cooling degree days 3 15  
Moisture  
Dew Point 30 °F    
Average Humidity 56    
Maximum Humidity 79    
Minimum Humidity 32    
Precipitation  
Precipitation 0.00 in 0.12 in 5.12 in (1964)
Month to date precipitation 1.01 0.38  
Year to date precipitation 12.86 9.80  
Sea Level Pressure  
Sea Level Pressure 30.19 in    
Wind  
Wind Speed 12 mph (East)    
Max Wind Speed 29 mph    
Max Gust Speed 37 mph    
Visibility 10 miles    
Events Rain    
T = Trace of Precipitation, MM = Missing Value Source: NWS Daily Summary

Daily Weather History Graph

Daily Weather History Graph

Search for Another Location

Airport:

Trip Planner

Search our weather history database for the weather conditions in past years. The results will help you decide how hot, cold, wet, or windy it might be!

Date:

Astronomy

Apr. 03, 2013 Rise Set
Actual Time 7:00 AM CDT 7:40 PM CDT
Civil Twilight 6:35 AM CDT 8:06 PM CDT
Nautical Twilight 6:05 AM CDT 8:36 PM CDT
Astronomical Twilight 5:34 AM CDT 9:07 PM CDT
Moon 2:28 AM CDT (4/3) 1:07 PM CDT (4/3)
Length of Visible Light 13h 31m
Length of Day
12h 39m
Last Quarter, 44% of the Moon is Illuminated
Apr 3
Last Quarter
Apr 10
New
Apr 18
First Quarter
Apr 25
Full
May 2
Last Quarter

Hourly Weather History & Observations

Time (CDT) Temp. Windchill Dew Point Humidity Pressure Visibility Wind Dir Wind Speed Gust Speed Precip Events Conditions
12:53 AM 41.0 °F 34.3 °F 35.1 °F 79% 30.20 in 10.0 mi East 11.5 mph - N/A   Overcast
1:53 AM 41.0 °F 33.9 °F 34.0 °F 76% 30.19 in 10.0 mi East 12.7 mph - N/A   Overcast
2:53 AM 41.0 °F 34.3 °F 33.1 °F 73% 30.16 in 10.0 mi East 11.5 mph 20.7 mph N/A   Overcast
3:53 AM 42.1 °F 36.6 °F 30.9 °F 65% 30.17 in 10.0 mi East 9.2 mph - N/A   Overcast
4:53 AM 42.1 °F 36.6 °F 30.0 °F 62% 30.19 in 10.0 mi East 9.2 mph - N/A   Overcast
5:53 AM 42.1 °F 35.7 °F 30.0 °F 62% 30.21 in 10.0 mi ENE 11.5 mph - N/A   Overcast
6:53 AM 42.1 °F 34.5 °F 30.0 °F 62% 30.19 in 10.0 mi East 15.0 mph - N/A   Overcast
7:53 AM 43.0 °F 36.8 °F 30.9 °F 62% 30.22 in 10.0 mi East 11.5 mph - N/A   Overcast
8:53 AM 44.1 °F 38.6 °F 30.0 °F 58% 30.23 in 10.0 mi East 10.4 mph - N/A   Overcast
9:53 AM 46.0 °F 40.2 °F 25.0 °F 44% 30.23 in 10.0 mi East 12.7 mph 23.0 mph N/A   Overcast
10:53 AM 46.9 °F - 25.0 °F 42% 30.24 in 10.0 mi East 11.5 mph - N/A   Overcast
11:53 AM 48.9 °F - 25.0 °F 39% 30.19 in 10.0 mi East 23.0 mph 35.7 mph N/A   Mostly Cloudy
12:53 PM 50.0 °F - 21.9 °F 33% 30.21 in 10.0 mi East 15.0 mph 24.2 mph N/A   Overcast
1:53 PM 48.9 °F - 25.0 °F 39% 30.20 in 10.0 mi East 10.4 mph - N/A   Overcast
2:53 PM 50.0 °F - 24.1 °F 36% 30.19 in 10.0 mi East 11.5 mph 19.6 mph N/A   Overcast
3:53 PM 50.0 °F - 25.0 °F 38% 30.19 in 10.0 mi East 5.8 mph - N/A   Overcast
4:53 PM 50.0 °F - 26.1 °F 39% 30.18 in 10.0 mi SE 6.9 mph - N/A   Overcast
5:53 PM 48.0 °F - 30.9 °F 52% 30.18 in 10.0 mi ESE 4.6 mph - 0.00 in Rain Light Rain
6:53 PM 48.0 °F - 33.1 °F 56% 30.18 in 10.0 mi NE 4.6 mph - 0.00 in   Overcast
7:53 PM 48.0 °F - 34.0 °F 58% 30.18 in 10.0 mi NE 5.8 mph - N/A   Overcast
8:53 PM 48.0 °F - 33.1 °F 56% 30.18 in 10.0 mi NE 6.9 mph - 0.00 in   Overcast
9:53 PM 46.9 °F - 35.1 °F 63% 30.19 in 10.0 mi East 4.6 mph - N/A   Overcast
10:53 PM 48.0 °F - 35.1 °F 61% 30.18 in 10.0 mi Calm Calm - N/A   Overcast
11:53 PM 48.0 °F - 35.1 °F 61% 30.18 in 10.0 mi Calm Calm - N/A   Overcast